Location: Central Falls
(41.8900°N, 71.3929°W)
Time: 11:34:39
(UTC+00:00)

A-11 Canister half - Pass Details

Date: 10 December 2023
Orbit: 1512 x 1687 km, 47.2° (Epoch: 20 February)

Event Time Altitude Azimuth Distance (km) Brightness Sun altitude
Rises 03:50:42 0° 238° (WSW) 4,684 - -68.6°
Reaches altitude 10° 03:53:42 10° 238° (WSW) 3,720 - -68.9°
Maximum altitude 04:03:10 84° 151° (SSE) 1,598 - -69.6°
Drops below altitude 10° 04:13:02 10° 65° (ENE) 3,868 - -70.3°
Sets 04:16:12 0° 65° (ENE) 4,878 - -70.4°
